Вернуться в каталог

THOR BURNER 2 R/B

АктивенSSO
NORAD 4048·ROCKET BODY·🇺🇸 United States

Запущен Jul 23, 1969 с Vandenberg Space Force Base

Loading…

Ближайшие Пролёты (ближайшие 24 часа)

TLE

СвежийSource: Space-Track

Эпоха: Sep 13, 2026, 23:30 UTC

1 04048U 69062B   26256.97971316  .00000110  00000-0  55692-4 0  9996
2 04048  98.3449  82.1740 0041693 160.1807 200.1009 14.32285833977311

Отслеживайте THOR BURNER 2 R/B в реальном времени с AllMySat

Download on the App Store